Hourly Weather Kislyaki

Today, 19 October, Monday

Time Temperature Precipitation Wind Pressure Humidity
00:00 +3°C° 0 mm 4 mps 737 mmHg 86%
01:00 +1°C° 0 mm 4 mps 737 mmHg 88%
02:00 0°C° 0 mm 4 mps 738 mmHg 92%
03:00 0°C° 0 mm 4 mps 738 mmHg 92%
04:00 0°C° 0 mm 4 mps 739 mmHg 92%
05:00 -1°C° 0 mm 4 mps 739 mmHg 92%
06:00 0°C° 0 mm 4 mps 739 mmHg 91%
07:00 0°C° 0 mm 4 mps 740 mmHg 90%
08:00 +1°C° 0 mm 4 mps 740 mmHg 89%
09:00 +1°C° 0 mm 5 mps 740 mmHg 84%
10:00 +2°C° 0 mm 5 mps 741 mmHg 80%
11:00 +3°C° 0 mm 6 mps 741 mmHg 75%
12:00 +3°C° 0.2 mm 6 mps 741 mmHg 70%
13:00 +4°C° 0.2 mm 7 mps 741 mmHg 66%
14:00 +4°C° 0.2 mm 7 mps 741 mmHg 61%
15:00 +3°C° 0 mm 6 mps 741 mmHg 65%
16:00 +3°C° 0 mm 5 mps 741 mmHg 69%
17:00 +3°C° 0 mm 4 mps 741 mmHg 73%
18:00 +2°C° 0.1 mm 5 mps 742 mmHg 74%
19:00 +2°C° 0.1 mm 5 mps 742 mmHg 75%
20:00 +2°C° 0.1 mm 6 mps 742 mmHg 76%
21:00 +1°C° 0 mm 6 mps 742 mmHg 78%
22:00 +1°C° 0 mm 6 mps 742 mmHg 79%
23:00 +1°C° 0 mm 5 mps 742 mmHg 80%

Tomorrow, 20 October, Tuesday

Time Temperature Precipitation Wind Pressure Humidity
00:00 +1°C° 0 mm 5 mps 743 mmHg 82%
01:00 +1°C° 0 mm 5 mps 743 mmHg 83%
02:00 0°C° 0 mm 5 mps 743 mmHg 84%
03:00 0°C° 0 mm 5 mps 743 mmHg 84%
04:00 0°C° 0 mm 5 mps 743 mmHg 84%
05:00 -1°C° 0 mm 6 mps 743 mmHg 84%
06:00 -1°C° 0 mm 6 mps 743 mmHg 83%
07:00 -1°C° 0 mm 6 mps 744 mmHg 82%
08:00 -1°C° 0 mm 6 mps 744 mmHg 81%
09:00 +1°C° 0 mm 6 mps 744 mmHg 78%
10:00 +1°C° 0 mm 6 mps 745 mmHg 75%
11:00 +2°C° 0 mm 6 mps 746 mmHg 73%
12:00 +2°C° 0 mm 6 mps 746 mmHg 71%
13:00 +2°C° 0 mm 6 mps 747 mmHg 70%
14:00 +2°C° 0 mm 5 mps 748 mmHg 68%
15:00 +2°C° 0 mm 5 mps 748 mmHg 71%
16:00 +3°C° 0 mm 4 mps 748 mmHg 73%
17:00 +2°C° 0 mm 3 mps 748 mmHg 76%
18:00 +2°C° 0 mm 3 mps 749 mmHg 79%
19:00 +3°C° 0 mm 2 mps 749 mmHg 82%
20:00 +2°C° 0 mm 2 mps 749 mmHg 85%
21:00 +2°C° 0 mm 2 mps 749 mmHg 86%
22:00 +3°C° 0 mm 2 mps 749 mmHg 87%
23:00 +3°C° 0 mm 2 mps 749 mmHg 89%

Day after tomorrow, 21 October, Wednesday

Time Temperature Precipitation Wind Pressure Humidity
00:00 +3°C° 0 mm 2 mps 749 mmHg 89%
01:00 +2°C° 0 mm 2 mps 749 mmHg 90%
02:00 +2°C° 0 mm 2 mps 749 mmHg 91%
03:00 +2°C° 0 mm 2 mps 749 mmHg 89%
04:00 +2°C° 0 mm 2 mps 749 mmHg 87%
05:00 +3°C° 0 mm 2 mps 748 mmHg 85%
06:00 +3°C° 0.1 mm 2 mps 748 mmHg 85%
07:00 +3°C° 0.1 mm 2 mps 748 mmHg 85%
08:00 +2°C° 0.1 mm 3 mps 748 mmHg 84%
09:00 +2°C° 0.6 mm 3 mps 747 mmHg 88%
10:00 +2°C° 0.6 mm 3 mps 747 mmHg 91%
11:00 +3°C° 0.6 mm 4 mps 746 mmHg 95%
12:00 +3°C° 0.3 mm 4 mps 746 mmHg 94%
13:00 +3°C° 0.3 mm 4 mps 746 mmHg 93%
14:00 +4°C° 0.3 mm 4 mps 746 mmHg 93%
15:00 +4°C° 0 mm 3 mps 745 mmHg 93%
16:00 +4°C° 0 mm 3 mps 745 mmHg 93%
17:00 +5°C° 0 mm 2 mps 745 mmHg 93%
18:00 +5°C° 0 mm 2 mps 745 mmHg 94%
19:00 +5°C° 0 mm 2 mps 745 mmHg 95%
20:00 +5°C° 0 mm 2 mps 745 mmHg 96%
21:00 +4°C° 0 mm 2 mps 745 mmHg 96%
22:00 +4°C° 0 mm 2 mps 744 mmHg 96%
23:00 +5°C° 0 mm 1 mps 744 mmHg 97%

22 October, Thursday

Time Temperature Precipitation Wind Pressure Humidity
00:00 +4°C° 0 mm 2 mps 744 mmHg 97%
01:00 +4°C° 0 mm 2 mps 744 mmHg 97%
02:00 +4°C° 0 mm 2 mps 744 mmHg 96%
03:00 +3°C° 0.3 mm 3 mps 743 mmHg 96%
04:00 +4°C° 0.3 mm 3 mps 743 mmHg 96%
05:00 +4°C° 0.3 mm 4 mps 742 mmHg 96%
06:00 +5°C° 1.3 mm 4 mps 742 mmHg 96%
07:00 +5°C° 1.3 mm 4 mps 741 mmHg 96%
08:00 +5°C° 1.3 mm 4 mps 740 mmHg 96%
09:00 +6°C° 0.1 mm 5 mps 740 mmHg 93%
10:00 +7°C° 0.1 mm 5 mps 740 mmHg 90%
11:00 +7°C° 0.1 mm 5 mps 740 mmHg 87%
12:00 +8°C° 0 mm 5 mps 740 mmHg 86%
13:00 +9°C° 0 mm 5 mps 740 mmHg 85%
14:00 +9°C° 0 mm 5 mps 740 mmHg 85%
15:00 +10°C° 0 mm 5 mps 740 mmHg 86%
16:00 +10°C° 0 mm 5 mps 740 mmHg 87%
17:00 +10°C° 0 mm 5 mps 740 mmHg 88%
18:00 +10°C° 0 mm 5 mps 740 mmHg 87%
19:00 +10°C° 0 mm 5 mps 740 mmHg 87%
20:00 +10°C° 0 mm 5 mps 740 mmHg 87%
21:00 +10°C° 0 mm 5 mps 740 mmHg 88%
22:00 +10°C° 0 mm 5 mps 740 mmHg 88%
23:00 +10°C° 0 mm 5 mps 740 mmHg 88%

23 October, Friday

Time Temperature Precipitation Wind Pressure Humidity
00:00 +10°C° 0.1 mm 5 mps 740 mmHg 89%
01:00 +10°C° 0.1 mm 5 mps 740 mmHg 90%
02:00 +10°C° 0.1 mm 5 mps 740 mmHg 91%
03:00 +10°C° 0 mm 5 mps 740 mmHg 92%
04:00 +9°C° 0 mm 5 mps 740 mmHg 93%
05:00 +9°C° 0 mm 5 mps 740 mmHg 94%
06:00 +9°C° 0 mm 5 mps 739 mmHg 93%
07:00 +10°C° 0 mm 5 mps 739 mmHg 92%
08:00 +10°C° 0 mm 5 mps 739 mmHg 91%
09:00 +10°C° 0 mm 5 mps 739 mmHg 90%
10:00 +12°C° 0 mm 5 mps 739 mmHg 88%
11:00 +12°C° 0 mm 5 mps 739 mmHg 87%
12:00 +12°C° 1.2 mm 5 mps 738 mmHg 89%
13:00 +12°C° 1.2 mm 5 mps 738 mmHg 91%
14:00 +10°C° 1.2 mm 5 mps 737 mmHg 94%
15:00 +12°C° 0.4 mm 5 mps 737 mmHg 93%
16:00 +12°C° 0.4 mm 5 mps 737 mmHg 92%
17:00 +12°C° 0.4 mm 5 mps 737 mmHg 92%
18:00 +12°C° 0.2 mm 5 mps 737 mmHg 91%
19:00 +10°C° 0.2 mm 5 mps 738 mmHg 90%
20:00 +10°C° 0.2 mm 5 mps 738 mmHg 88%
21:00 +10°C° 0 mm 4 mps 738 mmHg 89%
22:00 +8°C° 0 mm 4 mps 738 mmHg 89%
23:00 +8°C° 0 mm 3 mps 738 mmHg 89%

24 October, Saturday

Time Temperature Precipitation Wind Pressure Humidity
00:00 +7°C° 0 mm 3 mps 738 mmHg 87%
01:00 +6°C° 0 mm 4 mps 739 mmHg 85%
02:00 +6°C° 0 mm 4 mps 739 mmHg 83%
03:00 +5°C° 0 mm 4 mps 739 mmHg 85%
04:00 +5°C° 0 mm 4 mps 739 mmHg 87%
05:00 +4°C° 0 mm 4 mps 740 mmHg 89%
06:00 +4°C° 0 mm 4 mps 740 mmHg 89%
07:00 +4°C° 0 mm 4 mps 740 mmHg 89%
08:00 +4°C° 0 mm 4 mps 741 mmHg 90%
09:00 +4°C° 0 mm 4 mps 741 mmHg 85%
10:00 +5°C° 0 mm 4 mps 741 mmHg 79%
11:00 +5°C° 0 mm 4 mps 742 mmHg 74%
12:00 +5°C° 0 mm 4 mps 742 mmHg 73%
13:00 +5°C° 0 mm 4 mps 742 mmHg 72%
14:00 +5°C° 0 mm 3 mps 743 mmHg 71%
15:00 +5°C° 0 mm 3 mps 743 mmHg 75%
16:00 +5°C° 0 mm 2 mps 743 mmHg 78%
17:00 +4°C° 0 mm 2 mps 743 mmHg 82%
18:00 +4°C° 0 mm 2 mps 743 mmHg 81%
19:00 +4°C° 0 mm 2 mps 743 mmHg 81%
20:00 +5°C° 0 mm 1 mps 744 mmHg 81%
21:00 +5°C° 0 mm 1 mps 744 mmHg 81%
22:00 +5°C° 0 mm 1 mps 744 mmHg 80%
23:00 +5°C° 0 mm 1 mps 744 mmHg 80%

25 October, Sunday

Time Temperature Precipitation Wind Pressure Humidity
00:00 +5°C° 0 mm 1 mps 744 mmHg 80%
01:00 +5°C° 0 mm 1 mps 745 mmHg 80%
02:00 +5°C° 0 mm 1 mps 745 mmHg 80%
03:00 +5°C° 0 mm 1 mps 745 mmHg 80%
04:00 +5°C° 0 mm 1 mps 745 mmHg 81%
05:00 +4°C° 0 mm 2 mps 745 mmHg 82%
06:00 +4°C° 0 mm 2 mps 746 mmHg 82%
07:00 +4°C° 0 mm 2 mps 746 mmHg 82%
08:00 +4°C° 0 mm 2 mps 746 mmHg 82%
09:00 +5°C° 0 mm 2 mps 747 mmHg 77%
10:00 +4°C° 0 mm 3 mps 747 mmHg 71%
11:00 +5°C° 0 mm 3 mps 747 mmHg 66%
12:00 +5°C° 0 mm 3 mps 748 mmHg 66%
13:00 +5°C° 0 mm 3 mps 748 mmHg 65%
14:00 +5°C° 0 mm 3 mps 748 mmHg 65%
15:00 +5°C° 0 mm 3 mps 748 mmHg 68%
16:00 +5°C° 0 mm 2 mps 748 mmHg 71%
17:00 +4°C° 0 mm 2 mps 749 mmHg 74%
18:00 +4°C° 0 mm 2 mps 749 mmHg 75%
19:00 +3°C° 0 mm 2 mps 749 mmHg 76%
20:00 +3°C° 0 mm 1 mps 750 mmHg 77%
21:00 +3°C° 0 mm 1 mps 750 mmHg 77%
22:00 +2°C° 0 mm 1 mps 750 mmHg 78%
23:00 +2°C° 0 mm 1 mps 750 mmHg 78%
Show more